Location: 22
(39.7117°N, 89.5929°W)
Time: 06:54:07
(UTC-06:00)

ISS - Visible Passes

Search period start: 17 February 2019 00:00
Search period end: 27 February 2019 00:00
Orbit: 403 x 411 km, 51.6° (Epoch: 17 February)

Date Brightness Start Highest point End Pass type
(mag) Time Alt. Az. Time Alt. Az. Time Alt. Az.
21 Feb -0.9 05:49:01 10° S 05:51:08 16° SE 05:53:15 10° E visible
23 Feb -2.6 05:41:22 10° SSW 05:44:27 41° SE 05:47:34 10° ENE visible
24 Feb -1.6 04:51:46 17° SSE 04:53:06 21° SE 04:55:40 10° E visible
25 Feb -3.9 05:35:41 19° WSW 05:37:54 72° NW 05:41:09 10° NE visible
26 Feb -3.2 04:46:40 54° ESE 04:46:40 54° ESE 04:49:37 10° ENE visible
